{"data":{"norad_id":56039,"epoch":"2026-05-24T21:25:16.447008Z","epoch_age_seconds":81338,"freshness":"FRESH","line1":"1 56039U 23042BF  26144.89255147  .00001102  00000+0  49557-4 0  9999","line2":"2 56039  43.0042 320.6269 0001524 271.0890  88.9787 15.27580232174852","mean_motion":15.27580232,"eccentricity":0.0001524,"inclination_deg":43.0042,"raan_deg":320.6269,"arg_perigee_deg":271.089,"mean_anomaly_deg":88.9787,"bstar":4.9557e-5,"rev_number":17485,"period_min":94.266734396966,"perigee_km":482.00275669311,"apogee_km":484.09404600345,"semimajor_km":6861.1854013483,"source":"CELESTRAK","updated_at":"2026-05-25T13:38:17.952417Z"}}